Location: Unspecified
(43.8044°N, 11.0278°E)
Time: 10:57:32
(UTC+01:00)

CZ-3 Stage 3 - Visible Passes

Search period start: 11 December 2016 00:00
Search period end: 21 December 2016 00:00
Orbit: 470 x 34733 km, 30.6° (Epoch: 08 December)

Date Brightness Start Highest point End Pass type
(mag) Time Alt. Az. Time Alt. Az. Time Alt. Az.
11 Dec 8.4 00:19:29 10° SE 07:21:13 66° SE 09:15:07 10° E visible
12 Dec 10.3 00:28:38 10° ENE 03:38:28 25° E 05:10:00 10° ENE visible
13 Dec 7.8 03:30:08 10° SSW 07:10:52 59° SW 12:46:33 10° SSE visible
14 Dec 8.3 00:08:50 10° SE 07:10:34 66° SE 09:06:29 10° ESE visible
15 Dec 10.3 00:15:22 10° ENE 03:28:21 25° E 05:01:11 10° ENE visible
16 Dec 7.9 03:21:03 10° SSW 06:58:52 59° SW 12:37:51 10° SSE visible
16 Dec 8.2 23:58:19 10° SE 06:59:55 67° SE 08:57:51 10° ESE visible
18 Dec 10.3 00:02:10 10° ENE 03:18:15 26° E 04:52:21 10° ENE visible
18 Dec 9.1 07:23:08 10° WSW 09:16:13 23° W 15:47:19 10° WSW visible
19 Dec 8.0 03:11:59 10° SSW 06:46:55 60° SW 12:29:09 10° SSE visible
19 Dec 8.2 23:47:58 10° SE 06:49:15 67° SE 08:49:13 10° ESE visible
